Station AJXA2 - Juneau AJ Dock, AK Image indicating link to RSS feed of recent meteorological observations for station AJXA2


Conditions at AJXA2 as of
(3:12 am AKDT)
1112 GMT on 07/14/2024:
     

Click on the graph icon in the table below to see a time series plot of the last five days of that observation.

5-day plot - Wind Direction Wind Direction (WDIR): SE ( 130 deg true )
5-day plot - Wind Speed Wind Speed (WSPD): 15 kts
5-day plot - Wind Gust Wind Gust (GST): 22 kts
5-day plot - Atmospheric Pressure Atmospheric Pressure (PRES):29.96 in
5-day plot - Air Temperature Air Temperature (ATMP): 57.0 °F
5-day plot - Dew Point Dew Point (DEWP): 56.5 °F
5-day plot - Wind Speed at 10 Meters Wind Speed at 10 meters (WSPD10M): 17 kts
5-day plot - Wind Speed at 20 Meters Wind Speed at 20 meters (WSPD20M): 19 kts
5-day plot -  Wind Speed, Wind Gust and Atmospheric Pressure Combined plot of Wind Speed, Gust, and Air Pressure
Previous observations
TIME
(AKDT)
5-day plot - Wind Direction
WDIR
 
5-day plot - Wind Speed
WSPD
kts
5-day plot - Wind Gust
GST
kts
5-day plot - Wave Height
WVHT
ft
5-day plot - Dominant Wave Period
DPD
sec
5-day plot - Average Wave Period
APD
sec
5-day plot - Mean Wave Direction
MWD
 
5-day plot - Atmospheric Pressure
PRES
in
5-day plot - Pressure Tendency
PTDY
in
5-day plot - Air Temperature
ATMP
°F
5-day plot - Water Temperature
WTMP
°F
5-day plot - Dew Point
DEWP
°F
5-day plot - Salinity
SAL
psu
5-day plot - Visibility
VIS
nmi
5-day plot - Tide (above MLLW)
TIDE
ft
2024-07-14 03:02 amESE 16 21----29.96- 57.4- 56.8---
2024-07-14 02:52 amESE 16 23----29.96- 57.6- 56.8---
2024-07-14 02:42 amESE 16 22----29.96- 57.6- 56.8---
2024-07-14 02:32 amESE 16 23----29.97- 57.4- 56.8---
2024-07-14 02:22 am SE 16 23----29.97- 57.2- 56.7---
2024-07-14 02:12 amESE 16 21----29.97- 57.2- 56.7---
2024-07-14 02:02 am SE 16 21----29.97- 57.2- 56.7---
2024-07-14 01:52 am SE 16 21----29.97- 57.0- 56.5---
2024-07-14 01:42 am SE 16 22----29.97- 57.0- 56.5---
2024-07-14 01:32 am SE 17 24----29.97- 57.2- 56.7---
2024-07-14 01:22 amESE 16 22----29.97- 57.2- 56.7---
2024-07-14 01:12 am SE 15 20----29.98- 57.0- 56.5---
2024-07-14 01:02 am SE 15 20----29.98- 56.8- 56.3---
2024-07-14 12:52 am SE 15 18----29.98- 55.9- 55.6---
2024-07-14 12:42 am SE 16 19----29.98- 55.9- 55.6---
2024-07-14 12:32 am SE 16 20----29.98- 55.9- 55.4---
2024-07-14 12:22 am SE 16 20----29.98- 55.9- 55.4---
2024-07-14 12:12 am SE 16 20----29.98- 55.6- 55.0---
2024-07-14 12:02 am SE 16 21----29.98- 56.1- 55.6---
2024-07-13 11:52 pm SE 17 19----29.98- 55.6- 55.2---
2024-07-13 11:42 pm SE 16 20----29.98- 55.8- 55.4---
2024-07-13 11:32 pm SE 17 20----29.99- 55.8- 55.4---
2024-07-13 11:22 pm SE 16 19----29.99- 55.4- 55.4---
2024-07-13 11:12 pm SE 16 19----29.99- 55.6- 55.6---
2024-07-13 10:52 pm SE 14 17----30.00- 55.0- 55.0---
2024-07-13 10:42 pm SE 15 17----30.00- 55.2- 55.2---
2024-07-13 10:32 pm SE 14 19----30.00- 55.4- 55.4---
2024-07-13 10:22 pm SE 15 18----30.00- 55.4- 55.4---
2024-07-13 10:12 pm SE 15 17----30.01- 55.0- 55.0---
2024-07-13 10:02 pm SE 15 17----30.01- 55.2- 54.9---
2024-07-13 09:52 pm SE 15 18----30.01- 55.0- 54.9---
2024-07-13 09:42 pm SE 15 17----30.01- 54.9- 54.9---
2024-07-13 09:32 pmSSE 14 17----30.01- 54.3- 54.3---
2024-07-13 09:22 pmSSE 14 16----30.01- 54.5- 54.5---
2024-07-13 09:12 pmSSE 14 17----30.01- 54.7- 54.7---
2024-07-13 09:02 pmSSE 14 16----30.01- 54.1- 54.1---
2024-07-13 08:52 pmSSE 13 16----30.01- 54.3- 54.3---
2024-07-13 08:42 pmSSE 14 16----30.01- 54.5- 54.5---
2024-07-13 08:32 pmSSE 13 17----30.01- 54.5- 54.5---
2024-07-13 08:22 pmSSE 14 18----30.01- 54.3- 54.3---
2024-07-13 08:12 pmSSE 14 16----30.02- 54.1- 54.1---
2024-07-13 08:02 pm SE 15 17----30.02- 54.1- 54.1---
2024-07-13 07:52 pmSSE 15 17----30.02- 54.1- 54.1---
2024-07-13 07:42 pmSSE 14 17----30.03- 54.0- 54.0---
2024-07-13 07:32 pm SE 15 17----30.03- 54.0- 54.0---
2024-07-13 07:22 pm SE 14 17----30.03- 53.8- 53.8---
2024-07-13 07:12 pmSSE 14 17----30.03- 54.0- 54.0---
2024-07-13 07:02 pm SE 14 19----30.03- 54.9- 54.3---
2024-07-13 06:52 pm SE 15 20----30.04- 55.6- 54.9---
2024-07-13 06:42 pm SE 15 19----30.04- 54.9- 54.5---
2024-07-13 06:32 pm SE 14 18----30.04- 54.7- 54.3---
2024-07-13 06:22 pm SE 14 19----30.05- 54.5- 54.3---
2024-07-13 06:12 pm SE 14 18----30.05- 54.3- 54.1---
2024-07-13 06:02 pm SE 12 15----30.05- 54.1- 54.0---
2024-07-13 05:52 pmSSE 11 13----30.06- 54.1- 54.1---
2024-07-13 05:42 pmSSE 11 13----30.06- 54.0- 54.0---
2024-07-13 05:32 pmSSE 11 13----30.06- 53.8- 53.8---
2024-07-13 05:22 pmSSE 11 14----30.06- 53.8- 53.8---
2024-07-13 05:12 pmSSE 10 12----30.07- 53.8- 53.8---
2024-07-13 05:02 pmSSE 10 12----30.07- 54.1- 54.1---
2024-07-13 04:52 pmSSE 11 14----30.07- 54.0- 54.0---
2024-07-13 04:42 pmSSE 12 14----30.07- 53.6- 53.6---
2024-07-13 04:32 pm SE 12 15----30.07- 53.4- 53.4---
2024-07-13 04:22 pmSSE 12 14----30.07- 53.4- 53.4---
2024-07-13 04:12 pmSSE 12 15----30.07- 53.6- 53.6---
2024-07-13 03:52 pm SE 13 17----30.08- 54.0- 53.6---
2024-07-13 03:42 pm SE 14 17----30.08- 54.7- 54.0---
2024-07-13 03:32 pm SE 14 20----30.08- 53.8- 53.8---
2024-07-13 03:22 pmSSE 13 16----30.08- 53.4- 53.4---
2024-07-13 03:12 pmSSE 13 15----30.08- 53.4- 53.4---
2024-07-13 03:02 pm SE 13 15----30.08- 53.4- 53.4---
2024-07-13 02:52 pm SE 14 16----30.09- 53.4- 53.4---
2024-07-13 02:42 pm SE 13 14----30.09- 53.6- 53.2---
2024-07-13 02:32 pm SE 13 16----30.09- 54.1- 53.6---
2024-07-13 02:22 pm SE 12 13----30.09- 53.4- 53.2---
2024-07-13 02:12 pm SE 12 14----30.09- 53.6- 53.2---
2024-07-13 02:02 pm SE 13 16----30.09- 54.1- 53.6---
2024-07-13 01:52 pm SE 13 16----30.09- 53.2- 53.2---
2024-07-13 01:42 pmSSE 13 16----30.09- 53.2- 53.1---
2024-07-13 01:32 pmSSE 13 15----30.09- 53.1- 53.1---
2024-07-13 01:22 pmSSE 13 15----30.09- 52.9- 52.9---
2024-07-13 01:12 pmSSE 13 15----30.09- 52.9- 52.9---
2024-07-13 01:02 pmSSE 13 15----30.09- 52.9- 52.7---
2024-07-13 12:52 pm SE 14 16----30.09- 52.9- 52.5---
2024-07-13 12:42 pm SE 14 17----30.09- 53.2- 52.7---
2024-07-13 12:32 pm SE 15 18----30.09- 53.8- 52.9---
2024-07-13 12:22 pm SE 15 17----30.09- 53.8- 52.9---
2024-07-13 12:12 pmESE 14 18----30.09- 54.1- 52.9---
2024-07-13 12:02 pmESE 14 20----30.09- 54.1- 52.9---
2024-07-13 11:52 amESE 12 17----30.09- 54.1- 52.9---
2024-07-13 11:42 amESE 13 18----30.09- 54.1- 52.7---
2024-07-13 11:32 amESE 13 18----30.09- 54.0- 52.7---
2024-07-13 11:22 amESE 13 18----30.09- 53.8- 52.7---
2024-07-13 11:12 am SE 15 19----30.09- 53.8- 52.5---
2024-07-13 11:02 am SE 12 16----30.09- 53.6- 52.5---
2024-07-13 10:52 am SE 14 17----30.09- 53.4- 52.5---
2024-07-13 10:42 am SE 14 17----30.09- 53.6- 52.7---
2024-07-13 10:32 am SE 12 16----30.09- 53.1- 52.5---
2024-07-13 10:22 amSSE 13 16----30.09- 53.1- 52.5---
2024-07-13 10:12 am SE 12 14----30.09- 53.2- 52.5---
2024-07-13 10:02 am SE 13 15----30.09- 53.6- 52.7---
2024-07-13 09:52 am SE 11 14----30.09- 53.1- 52.7---
2024-07-13 09:42 am SE 11 12----30.09- 53.1- 52.5---
2024-07-13 09:32 amSSE 11 13----30.09- 53.4- 52.7---
2024-07-13 09:22 amSSE 10 12----30.09- 53.6- 52.7---
2024-07-13 09:12 amSSE 10 12----30.09- 53.8- 52.9---
2024-07-13 09:02 amSSE 11 13----30.09- 54.0- 53.1---
2024-07-13 08:52 am SE 12 14----30.09- 54.3- 52.9---
2024-07-13 08:42 am SE 9 11----30.09- 54.0- 53.1---
2024-07-13 08:32 amESE 9 12----30.09- 54.1- 53.1---
2024-07-13 08:22 am SE 11 13----30.09- 54.1- 53.1---
2024-07-13 08:12 am SE 12 15----30.09- 54.5- 53.1---
2024-07-13 08:02 am SE 12 16----30.09- 54.3- 53.1---
2024-07-13 07:52 amESE 11 16----30.09- 54.7- 53.2---
2024-07-13 07:42 am SE 10 14----30.09- 54.3- 53.2---
2024-07-13 07:32 amSSE 8 10----30.09- 53.6- 53.1---
2024-07-13 07:22 am SE 9 14----30.09- 54.1- 53.1---
2024-07-13 07:12 amSSE 9 13----30.09- 54.0- 53.2---
2024-07-13 07:02 am SE 12 15----30.09- 54.5- 53.2---
2024-07-13 06:52 am SE 12 15----30.09- 54.7- 53.2---
2024-07-13 06:42 am SE 9 13----30.09- 54.1- 53.2---
2024-07-13 06:32 amSSE 8 10----30.09- 53.8- 53.2---
2024-07-13 06:22 am S 7 8----30.09- 53.4- 53.4---
2024-07-13 06:12 amSSE 6 9----30.09- 53.2- 53.2---
2024-07-13 06:02 amSSE 6 7----30.10- 53.2- 53.2---
2024-07-13 05:52 amSSE 5 7----30.10- 52.9- 52.9---
2024-07-13 05:42 amESE 3 5----30.09- 53.1- 53.1---
2024-07-13 05:32 am E 3 5----30.09- 53.2- 53.2---
2024-07-13 05:22 am SE 2 3----30.10- 53.4- 53.4---
2024-07-13 05:12 amESE 2 3----30.10- 53.2- 53.2---
2024-07-13 05:02 am SE 2 3----30.10- 53.2- 53.2---
2024-07-13 04:52 amESE 2 3----30.10- 53.2- 53.2---
2024-07-13 04:42 am SE 3 4----30.10- 53.2- 53.2---
2024-07-13 04:32 am SE 3 3----30.10- 53.4- 53.4---
2024-07-13 04:22 amESE 2 3----30.10- 53.4- 53.4---
2024-07-13 04:12 amESE 2 3----30.11- 53.4- 53.4---
2024-07-13 04:03 amESE 3 4----30.10- 53.2- 53.2---
2024-07-13 03:52 am SE 3 4----30.10- 53.2- 53.2---
2024-07-13 03:42 amESE 3 4----30.10- 53.4- 53.4---
2024-07-13 03:32 amESE 3 5----30.10- 53.4- 53.4---
2024-07-13 03:22 am E 3 4----30.10- 53.4- 53.4---
2024-07-13 03:12 amESE 2 4----30.10- 53.4- 53.4---
2024-07-13 03:02 am E 3 5----30.11- 53.4- 53.4---
2024-07-13 02:52 am E 3 4----30.11- 53.4- 53.4---